This is the latest recevied weather packets stored in our database for station/object SP6PWT-13. If no packets are shown the sender has not sent any weather packets the latest 10 day(s).
| Time | Temp. | Humidity | Pressure | Rain* | Wind** | Luminosity | Snow |
|---|---|---|---|---|---|---|---|
| 1777727843 | 23.33° C | 29% | 1005.4 hPa | 0 mm | - | 498 W/m² | - |
| 1777727543 | 23.89° C | 28% | 1005.5 hPa | 0 mm | - | 505 W/m² | - |
| 1777727232 | 24.44° C | 28% | 1005.5 hPa | 0 mm | - | 513 W/m² | - |
| 1777726932 | 23.89° C | 28% | 1005.7 hPa | 0 mm | - | 522 W/m² | - |
| 1777726632 | 23.89° C | 28% | 1005.7 hPa | 0 mm | - | 534 W/m² | - |
| 1777726321 | 23.89° C | 29% | 1005.7 hPa | 0 mm | - | 541 W/m² | - |
| 1777726021 | 23.89° C | 28% | 1006 hPa | 0 mm | - | 550 W/m² | - |
| 1777725721 | 23.33° C | 28% | 1006 hPa | 0 mm | - | 558 W/m² | - |
| 1777725410 | 23.33° C | 29% | 1006 hPa | 0 mm | - | 569 W/m² | - |
| 1777725110 | 23.33° C | 29% | 1006.3 hPa | 0 mm | - | 576 W/m² | - |
| 1777724799 | 23.89° C | 29% | 1006.2 hPa | 0 mm | - | 583 W/m² | - |
| 1777724499 | 23.89° C | 28% | 1006.4 hPa | 0 mm | - | 589 W/m² | - |
| 1777724188 | 22.78° C | 29% | 1006.4 hPa | 0 mm | - | 597 W/m² | - |
| 1777723888 | 22.78° C | 29% | 1006.4 hPa | 0 mm | - | 605 W/m² | - |
| 1777723587 | 23.33° C | 29% | 1006.6 hPa | 0 mm | - | 613 W/m² | - |
| 1777723277 | 23.33° C | 28% | 1006.5 hPa | 0 mm | - | 618 W/m² | - |
| 1777722977 | 22.78° C | 28% | 1006.6 hPa | 0 mm | - | 624 W/m² | - |
| 1777722667 | 22.78° C | 28% | 1006.7 hPa | 0 mm | - | 629 W/m² | - |
| 1777722366 | 22.78° C | 28% | 1006.8 hPa | 0 mm | - | 634 W/m² | - |
| 1777722056 | 23.33° C | 29% | 1006.8 hPa | 0 mm | - | 640 W/m² | - |
| 1777721755 | 22.78° C | 30% | 1006.9 hPa | 0 mm | - | 645 W/m² | - |
| 1777721455 | 22.78° C | 30% | 1006.7 hPa | 0 mm | - | 648 W/m² | - |
| 1777721145 | 22.78° C | 30% | 1006.9 hPa | 0 mm | - | 652 W/m² | - |
| 1777720844 | 22.78° C | 30% | 1007.1 hPa | 0 mm | - | 655 W/m² | - |
| 1777720544 | 22.22° C | 29% | 1007 hPa | 0 mm | - | 658 W/m² | - |
* Rain latest hour (hover to see other rain measurements)
** Current wind speed in m/s (hover to see current wind gust speed)